This is the latest recevied weather packets stored in our database for station/object K1LBG. If no packets are shown the sender has not sent any weather packets the latest 10 day(s).
| Time | Temp. | Humidity | Pressure | Rain* | Wind** | Luminosity | Snow |
|---|---|---|---|---|---|---|---|
| 1777914084 | 20.56° C | 35% | 1008.6 hPa | 0 mm | - | - | - |
| 1777913184 | 20.56° C | 36% | 1008.8 hPa | 0 mm | - | - | - |
| 1777909288 | 20.56° C | 39% | 1009.7 hPa | 0 mm | - | - | - |
| 1777908997 | 20° C | 36% | 1009.8 hPa | 0 mm | - | - | - |
| 1777908388 | 20° C | 40% | 1009.9 hPa | 0 mm | - | - | - |
| 1777906892 | 18.89° C | 42% | 1009.9 hPa | 0 mm | - | - | - |
| 1777906012 | 18.89° C | 44% | 1010.2 hPa | 0 mm | - | - | - |
| 1777902386 | 17.78° C | 50% | 1010.7 hPa | 0 mm | - | - | - |
| 1777902109 | 17.22° C | 44% | 1010.8 hPa | 0 mm | - | - | - |
| 1777899402 | 15.56° C | 49% | 1011.2 hPa | 0 mm | - | - | - |
| 1777898785 | 15° C | 48% | 1011.3 hPa | 0 mm | - | - | - |
| 1777898503 | 15° C | 48% | 1011.3 hPa | 0 mm | - | - | - |
| 1777897288 | 13.89° C | 52% | 1011.4 hPa | 0 mm | - | - | - |
| 1777896703 | 12.78° C | 55% | 1011.4 hPa | 0 mm | - | - | - |
| 1777896410 | 12.78° C | 54% | 1011.3 hPa | 0 mm | - | - | - |
| 1777896097 | 12.22° C | 57% | 1011.4 hPa | 0 mm | - | - | - |
| 1777895490 | 11.67° C | 57% | 1011.3 hPa | 0 mm | - | - | - |
| 1777894608 | 10° C | 63% | 1011.3 hPa | 0 mm | - | - | - |
| 1777892486 | 7.78° C | 66% | 1011.3 hPa | 0 mm | - | - | - |
| 1777892223 | 7.78° C | 70% | 1011.3 hPa | 0 mm | - | - | - |
| 1777891897 | 7.22° C | 67% | 1011.3 hPa | 0 mm | - | - | - |
| 1777889489 | 5.56° C | 75% | 1011.3 hPa | 0 mm | - | - | - |
| 1777888001 | 4.44° C | 80% | 1011.1 hPa | 0 mm | - | - | - |
| 1777886799 | 5° C | 80% | 1011 hPa | 0 mm | - | - | - |
| 1777883533 | 5.56° C | 79% | 1010.8 hPa | 0 mm | - | - | - |
* Rain latest hour (hover to see other rain measurements)
** Current wind speed in m/s (hover to see current wind gust speed)